Weather History for Salem, IL

Change the Weather History Date:

Wednesday, August 28, 2013

  Actual Average Record
Temperature  
Mean Temperature 80 °F -  
Max Temperature 92 °F 86 °F 99 °F (1990)
Min Temperature 69 °F 63 °F 48 °F (1967)
Cooling Degree Days 16    
Growing Degree Days 30 (Base 50)    
Moisture  
Dew Point 71 °F    
Average Humidity 74    
Maximum Humidity 100    
Minimum Humidity 45    
Precipitation  
Precipitation 0.00 in - - ()
Sea Level Pressure  
Sea Level Pressure 30.02 in    
Wind  
Wind Speed 5 mph (WSW)    
Max Wind Speed 12 mph    
Max Gust Speed 16 mph    
Visibility 9 miles    
Events      
Averages and records for this station are not official NWS values.
T = Trace of Precipitation, MM = Missing Value Source: NWS Daily Summary

Daily Weather History Graph

Daily Weather History Graph

Search for Another Location

Airport:

Trip Planner

Search our weather history database for the weather conditions in past years. The results will help you decide how hot, cold, wet, or windy it might be!

Date:

Astronomy

Aug. 28, 2013 Rise Set
Actual Time 6:21 AM CDT 7:31 PM CDT
Civil Twilight 5:54 AM CDT 7:58 PM CDT
Nautical Twilight 5:21 AM CDT 8:31 PM CDT
Astronomical Twilight 4:47 AM CDT 9:05 PM CDT
Moon No Moon Rise 2:07 PM CDT (8/28)
Length of Visible Light 14h 04m
Length of Day
13h 09m
Waning Gibbous, 47% of the Moon is Illuminated
Aug 28
Waning Gibbous
Sep 5
New
Sep 12
First Quarter
Sep 19
Full
Sep 26
Last Quarter

Hourly Weather History & Observations

Time (CDT) Temp. Heat Index Dew Point Humidity Pressure Visibility Wind Dir Wind Speed Gust Speed Precip Events Conditions
12:15 AM 77.0 °F - 74.3 °F 91% 30.02 in 7.0 mi SSW 3.5 mph - N/A   Clear
12:35 AM 76.6 °F - 74.3 °F 92% 30.01 in 7.0 mi SSW 4.6 mph - N/A   Clear
12:55 AM 76.3 °F - 74.1 °F 93% 30.01 in 7.0 mi SSW 3.5 mph - N/A   Clear
1:15 AM 75.7 °F - 74.1 °F 95% 30.01 in 7.0 mi SW 3.5 mph - N/A   Clear
1:35 AM 76.1 °F - 73.6 °F 92% 30.01 in 7.0 mi SW 4.6 mph - N/A   Clear
1:55 AM 75.7 °F - 73.2 °F 92% 30.00 in 10.0 mi SW 4.6 mph - N/A   Clear
2:15 AM 76.1 °F - 72.7 °F 89% 30.01 in 10.0 mi SW 4.6 mph - N/A   Clear
2:35 AM 76.1 °F - 72.5 °F 89% 30.01 in 10.0 mi SW 4.6 mph - N/A   Clear
2:55 AM 74.8 °F - 72.1 °F 91% 30.01 in 10.0 mi SW 4.6 mph - N/A   Clear
3:15 AM 74.5 °F - 72.0 °F 92% - 10.0 mi SW 5.8 mph - N/A   Clear
3:35 AM 74.3 °F - 71.8 °F 92% 30.01 in 7.0 mi SW 3.5 mph - N/A   Clear
3:55 AM 73.4 °F - 71.6 °F 94% 30.01 in 7.0 mi SW 3.5 mph - N/A   Clear
4:15 AM 73.0 °F - 71.4 °F 95% 30.01 in 7.0 mi SW 4.6 mph - N/A   Clear
4:35 AM 72.7 °F - 71.4 °F 96% 30.01 in 7.0 mi SW 4.6 mph - N/A   Clear
4:55 AM 72.7 °F - 71.4 °F 96% 30.02 in 7.0 mi WSW 3.5 mph - N/A   Clear
5:15 AM 72.1 °F - 71.6 °F 98% 30.02 in 7.0 mi SW 3.5 mph - N/A   Clear
5:35 AM 71.8 °F - 71.2 °F 98% 30.02 in 7.0 mi WSW 3.5 mph - N/A   Clear
5:55 AM 71.4 °F - 71.1 °F 99% 30.03 in 7.0 mi WSW 3.5 mph - N/A   Clear
6:15 AM 69.3 °F - 69.3 °F 100% 30.04 in 4.0 mi Calm Calm - N/A   Clear
6:35 AM 70.0 °F - 70.0 °F 100% 30.04 in 3.0 mi WSW 4.6 mph - N/A   Clear
6:55 AM 70.7 °F - 70.7 °F 100% 30.04 in 4.0 mi SW 4.6 mph - N/A   Clear
7:15 AM 72.3 °F - 72.1 °F 99% 30.05 in 5.0 mi SW 3.5 mph - N/A   Clear
7:35 AM 73.6 °F - 72.0 °F 95% 30.05 in 7.0 mi SW 4.6 mph - N/A   Clear
7:55 AM 74.8 °F - 72.0 °F 91% 30.05 in 7.0 mi WSW 4.6 mph - N/A   Clear
8:15 AM 76.1 °F - 71.6 °F 86% 30.05 in 10.0 mi WSW 4.6 mph - N/A   Clear
8:35 AM 77.5 °F - 71.8 °F 82% 30.05 in 10.0 mi WSW 6.9 mph - N/A   Clear
8:55 AM 79.0 °F - 71.6 °F 78% 30.05 in 10.0 mi West 6.9 mph - N/A   Clear
9:15 AM 81.0 °F 85.1 °F 71.4 °F 73% 30.05 in 10.0 mi West 6.9 mph - N/A   Clear
9:35 AM 82.4 °F 87.0 °F 71.2 °F 69% 30.05 in 10.0 mi West 6.9 mph - N/A   Clear
9:55 AM 83.7 °F 88.9 °F 71.6 °F 67% 30.05 in 10.0 mi West 6.9 mph - N/A   Clear
10:15 AM 85.1 °F 89.8 °F 70.2 °F 61% 30.05 in 10.0 mi West 6.9 mph - N/A   Clear
10:35 AM 86.2 °F 91.4 °F 70.7 °F 60% 30.05 in 10.0 mi West 8.1 mph - N/A   Clear
10:55 AM 87.6 °F 93.1 °F 70.7 °F 57% 30.05 in 10.0 mi West 9.2 mph - N/A   Clear
11:15 AM 88.3 °F 93.2 °F 69.8 °F 54% 30.05 in 10.0 mi West 8.1 mph 16.1 mph N/A   Clear
11:35 AM 88.9 °F 93.4 °F 69.4 °F 52% 30.05 in 10.0 mi West 10.4 mph - N/A   Clear
11:55 AM 89.6 °F 94.3 °F 69.3 °F 51% 30.04 in 10.0 mi West 9.2 mph 16.1 mph N/A   Clear
12:15 PM 90.5 °F 95.5 °F 69.8 °F 50% 30.03 in 10.0 mi West 11.5 mph - N/A   Clear
12:35 PM 90.5 °F 95.1 °F 68.9 °F 49% 30.03 in 10.0 mi West 9.2 mph - N/A   Clear
12:55 PM 91.2 °F 96.0 °F 69.3 °F 48% 30.03 in 10.0 mi WNW 10.4 mph - N/A   Clear
1:15 PM 91.6 °F 96.7 °F 69.1 °F 48% 30.03 in 10.0 mi West 9.2 mph - N/A   Clear
1:35 PM 91.4 °F 96.3 °F 68.9 °F 48% 30.02 in 10.0 mi West 11.5 mph - N/A   Clear
1:55 PM 91.9 °F 97.4 °F 69.6 °F 48% 30.01 in 10.0 mi West 8.1 mph - N/A   Clear
2:15 PM 92.1 °F 97.2 °F 69.4 °F 47% 30.01 in 10.0 mi West 8.1 mph - N/A   Clear
2:35 PM 92.8 °F 98.1 °F 69.4 °F 46% 30.01 in 10.0 mi West 6.9 mph - N/A   Clear
2:55 PM 92.5 °F 96.9 °F 68.5 °F 45% 30.01 in 10.0 mi West 9.2 mph - N/A   Clear
3:15 PM 92.5 °F 96.9 °F 68.2 °F 45% 30.00 in 10.0 mi WNW 8.1 mph - N/A   Clear
3:35 PM 92.7 °F 98.3 °F 69.4 °F 47% 30.00 in 10.0 mi West 8.1 mph - N/A   Clear
3:55 PM 92.5 °F 97.4 °F 68.9 °F 46% 30.00 in 10.0 mi West 8.1 mph - N/A   Clear
4:15 PM 92.3 °F 97.0 °F 68.9 °F 46% 30.00 in 10.0 mi WNW 6.9 mph - N/A   Clear
4:35 PM 92.5 °F 97.4 °F 69.1 °F 46% 29.99 in 10.0 mi West 5.8 mph - N/A   Clear
4:55 PM 92.3 °F 96.5 °F 68.2 °F 45% 30.00 in 10.0 mi West 6.9 mph - N/A   Clear
5:15 PM 91.9 °F 96.4 °F 68.5 °F 46% 29.99 in 10.0 mi West 6.9 mph - N/A   Clear
5:35 PM 91.4 °F 95.8 °F 68.5 °F 47% 30.00 in 10.0 mi West 5.8 mph - N/A   Clear
5:55 PM 90.9 °F 95.8 °F 69.4 °F 49% 30.00 in 10.0 mi West 5.8 mph - N/A   Clear
6:15 PM 90.1 °F 94.9 °F 69.4 °F 50% 30.00 in 10.0 mi West 5.8 mph - N/A   Clear
6:35 PM 89.2 °F 94.5 °F 70.3 °F 53% 30.00 in 10.0 mi WSW 3.5 mph - N/A   Clear
6:55 PM 87.8 °F 94.3 °F 72.0 °F 59% 29.99 in 10.0 mi WSW 3.5 mph - N/A   Clear
7:15 PM 85.5 °F 91.5 °F 72.0 °F 64% 30.00 in 10.0 mi WSW 3.5 mph - N/A   Clear
7:35 PM 82.8 °F 87.9 °F 72.0 °F 70% 30.00 in 10.0 mi WSW 3.5 mph - N/A   Clear
7:55 PM 79.0 °F - 73.4 °F 83% 30.00 in 10.0 mi SW 3.5 mph - N/A   Clear
8:15 PM 78.8 °F - 72.3 °F 80% 30.00 in 10.0 mi Calm Calm - N/A   Clear
8:35 PM 78.1 °F - 71.8 °F 81% 30.00 in 10.0 mi SW 3.5 mph - N/A   Clear
8:55 PM 76.8 °F - 71.8 °F 84% 30.01 in 10.0 mi SW 3.5 mph - N/A   Clear
9:15 PM 78.6 °F - 70.7 °F 77% 30.01 in 10.0 mi SW 3.5 mph - N/A   Clear
9:35 PM 75.2 °F - 72.0 °F 90% 30.01 in 10.0 mi Calm Calm - N/A   Clear
9:55 PM 75.2 °F - 71.1 °F 87% 30.01 in 10.0 mi WSW 3.5 mph - N/A   Clear
10:15 PM 74.8 °F - 71.1 °F 88% 30.00 in 10.0 mi Calm Calm - N/A   Clear
10:35 PM 74.1 °F - 70.9 °F 90% 30.01 in 10.0 mi Calm Calm - N/A   Clear
10:55 PM 73.0 °F - 71.4 °F 95% 30.00 in 10.0 mi Calm Calm - N/A   Clear
11:15 PM 72.5 °F - 72.0 °F 98% 30.01 in 10.0 mi Calm Calm - N/A   Clear
11:35 PM 72.5 °F - 71.6 °F 97% 30.00 in 10.0 mi Calm Calm - N/A   Clear
11:55 PM 72.1 °F - 71.8 °F 99% 30.00 in 10.0 mi Calm Calm - N/A   Clear